Weather in Baygulovo

Russia / Chuvash Republic     55°50′20″N   47°57′42″E
temp.,
°C
wind,
m/s
gust,
m/s
humid.,
%
clouds,
%
prec.,
mm/h
press.,
hPa
HPBL,
m
20 may, fri
fri2000:00+2w22905 0.0 101010
03:00+1wnw229136 0.0 101016
06:00+4nw3586100 0.1 1010261
09:00+7nw456682 0.5 10111137
12:00+8nnw676197 0.9 10111672
15:00+6n797590 1.3 10111137
18:00+6nnw577141 0.1 10111117
21:00+3nw5118942 0.8 1011273
21 may, sat
sat2100:00+2nnw512945 0.0 1010297
03:000nnw5119798 0.0 1010280
06:00+2nnw61093100 0.0 1010585
09:00+4nnw698099 0.0 10101019
12:00+7n786798 0.6 10091466
15:00+8nnw575996 1.1 10081577
18:00+6n4573100 0.3 1008769
21:00+3nnw238695 0.4 100735
22 may, sun
sun2200:00+2nw229067 0.0 100631
03:000nw34955 0.0 100570
06:00+2nw478371 0.0 1004461
09:00+4nw567097 0.3 10031179
12:00+6nw566499 0.4 10021372
15:00+7nw565999 0.8 10011550
18:00+6nw4669100 0.3 1001945
21:00+2wnw378677 0.4 1000127
23 may, mon
mon2300:000wnw4994100 0.0 999196
03:00+1wnw499696 0.0 998495
06:00+2w5895100 0.0 998609
09:00+3w5997100 0.4 998518
12:00+3wnw589599 0.6 999567
15:00+6wnw687855 0.9 10001032
18:00+6w467898 0.1 1000969
21:00+4w4891100 0.3 1001257
24 may, tue
tue2400:00+2w3797100 0.0 1001249
03:00+2w369699 0.0 1002268
06:00+2wnw2497100 0.1 1003256
09:00+4w4482100 0.3 1004820
12:00+4w3489100 0.5 1006557
15:00+6wnw4474100 0.9 1007944
18:00+6nw3476100 0.3 1008806
21:00+3nw379444 0.6 1010157